TimeCDT,TemperatureF,Dew PointF,Humidity,Sea Level PressureIn,VisibilityMPH,Wind Direction,Wind SpeedMPH,Gust SpeedMPH,PrecipitationIn,Events,Conditions,WindDirDegrees,DateUTC
12:15 AM,51.8,37.4,58,29.92,9.0,ENE,11.5,-,N/A,,Overcast,60,2013-03-17 05:15:00
12:35 AM,51.8,37.4,58,29.92,9.0,ENE,10.4,-,N/A,,Overcast,60,2013-03-17 05:35:00
12:55 AM,51.8,37.4,58,29.93,8.0,NE,8.1,-,N/A,,Overcast,40,2013-03-17 05:55:00
1:15 AM,51.8,37.4,58,29.92,8.0,NE,9.2,-,N/A,,Mostly Cloudy,50,2013-03-17 06:15:00
1:35 AM,51.8,37.4,58,29.92,8.0,ENE,9.2,-,N/A,,Mostly Cloudy,60,2013-03-17 06:35:00
1:55 AM,51.8,37.4,58,29.93,8.0,NNE,10.4,-,N/A,,Overcast,20,2013-03-17 06:55:00
2:15 AM,50.0,37.4,62,29.93,7.0,NNE,10.4,-,N/A,,Mostly Cloudy,30,2013-03-17 07:15:00
2:35 AM,48.2,35.6,62,29.93,7.0,NE,10.4,-,N/A,,Scattered Clouds,40,2013-03-17 07:35:00
2:55 AM,48.2,35.6,62,29.91,7.0,ENE,10.4,-,N/A,,Scattered Clouds,60,2013-03-17 07:55:00
3:15 AM,48.2,35.6,62,29.91,7.0,NE,10.4,-,N/A,,Partly Cloudy,50,2013-03-17 08:15:00
3:35 AM,48.2,35.6,62,29.91,7.0,NE,11.5,-,N/A,,Scattered Clouds,40,2013-03-17 08:35:00
3:55 AM,46.4,35.6,66,29.91,7.0,NE,15.0,18.4,N/A,,Mostly Cloudy,50,2013-03-17 08:55:00
4:15 AM,46.4,35.6,66,29.91,8.0,NE,13.8,23.0,N/A,,Overcast,40,2013-03-17 09:15:00
4:35 AM,46.4,33.8,62,29.91,7.0,NE,13.8,21.9,N/A,,Mostly Cloudy,40,2013-03-17 09:35:00
4:55 AM,44.6,33.8,66,29.91,7.0,NE,13.8,-,N/A,,Scattered Clouds,40,2013-03-17 09:55:00
5:15 AM,44.6,33.8,66,29.92,7.0,NE,12.7,-,N/A,,Mostly Cloudy,40,2013-03-17 10:15:00
5:35 AM,44.6,33.8,66,29.93,7.0,NE,13.8,18.4,N/A,,Scattered Clouds,40,2013-03-17 10:35:00
5:55 AM,44.6,33.8,66,29.94,8.0,NNE,12.7,21.9,N/A,,Clear,20,2013-03-17 10:55:00
6:15 AM,42.8,32.0,66,29.95,8.0,NNE,13.8,18.4,N/A,,Scattered Clouds,30,2013-03-17 11:15:00
6:35 AM,42.8,32.0,66,29.96,8.0,NE,12.7,-,N/A,,Mostly Cloudy,40,2013-03-17 11:35:00
6:55 AM,42.8,32.0,66,29.96,8.0,NE,12.7,-,N/A,,Overcast,50,2013-03-17 11:55:00
7:15 AM,44.6,32.0,61,29.96,7.0,NE,11.5,-,N/A,,Overcast,40,2013-03-17 12:15:00
7:35 AM,44.6,33.8,66,29.96,7.0,ENE,11.5,-,N/A,,Overcast,60,2013-03-17 12:35:00
7:55 AM,44.6,32.0,61,29.96,7.0,ENE,12.7,20.7,N/A,,Overcast,60,2013-03-17 12:55:00
8:15 AM,44.6,33.8,66,29.96,6.0,ENE,12.7,-,N/A,,Overcast,60,2013-03-17 13:15:00
8:35 AM,44.6,33.8,66,29.96,6.0,ENE,10.4,-,N/A,,Overcast,60,2013-03-17 13:35:00
8:55 AM,44.6,33.8,66,29.96,6.0,ENE,11.5,-,N/A,,Overcast,60,2013-03-17 13:55:00
9:15 AM,46.4,33.8,62,29.95,5.0,ENE,11.5,-,N/A,,Overcast,60,2013-03-17 14:15:00
9:35 AM,46.4,33.8,62,29.95,6.0,ENE,8.1,-,N/A,,Overcast,70,2013-03-17 14:35:00
9:55 AM,46.4,35.6,66,29.96,6.0,NE,11.5,-,N/A,,Overcast,40,2013-03-17 14:55:00
10:15 AM,46.4,35.6,66,29.96,7.0,NE,11.5,-,N/A,,Overcast,50,2013-03-17 15:15:00
10:35 AM,46.4,33.8,62,29.96,7.0,NE,11.5,-,N/A,,Overcast,50,2013-03-17 15:35:00
10:55 AM,46.4,33.8,62,29.97,7.0,NE,10.4,-,N/A,,Overcast,40,2013-03-17 15:55:00
11:15 AM,46.4,35.6,66,29.97,6.0,NE,10.4,-,N/A,,Overcast,50,2013-03-17 16:15:00
11:35 AM,46.4,35.6,66,29.97,7.0,NNE,10.4,-,N/A,,Overcast,30,2013-03-17 16:35:00
11:55 AM,46.4,35.6,66,29.99,3.0,North,12.7,-,N/A,,Overcast,360,2013-03-17 16:55:00
12:15 PM,44.6,35.6,71,29.98,1.5,NNE,16.1,-,0.01,,Overcast,20,2013-03-17 17:15:00
12:35 PM,44.6,35.6,71,29.98,2.0,NNE,13.8,-,0.01,,Overcast,20,2013-03-17 17:35:00
12:55 PM,42.8,33.8,70,29.95,6.0,ENE,13.8,18.4,0.01,,Overcast,60,2013-03-17 17:55:00
1:15 PM,42.8,33.8,70,29.94,6.0,NE,15.0,18.4,N/A,,Overcast,50,2013-03-17 18:15:00
1:35 PM,42.8,33.8,70,29.93,7.0,NE,13.8,-,N/A,,Overcast,50,2013-03-17 18:35:00
1:55 PM,44.6,35.6,71,29.92,9.0,ENE,13.8,18.4,N/A,,Overcast,60,2013-03-17 18:55:00
2:15 PM,44.6,35.6,71,29.91,10.0,ENE,11.5,-,N/A,,Overcast,70,2013-03-17 19:15:00
2:35 PM,44.6,35.6,71,29.89,10.0,East,13.8,-,N/A,Thunderstorm,Overcast,80,2013-03-17 19:35:00
2:55 PM,44.6,35.6,71,29.88,9.0,East,9.2,-,N/A,,Overcast,90,2013-03-17 19:55:00
3:15 PM,46.4,37.4,71,29.86,9.0,ENE,9.2,17.3,N/A,,Overcast,70,2013-03-17 20:15:00
3:35 PM,46.4,37.4,71,29.85,9.0,ENE,12.7,16.1,N/A,,Overcast,70,2013-03-17 20:35:00
3:55 PM,48.2,37.4,66,29.84,8.0,ENE,11.5,16.1,N/A,,Overcast,70,2013-03-17 20:55:00
4:15 PM,48.2,39.2,71,29.82,8.0,East,11.5,18.4,N/A,,Overcast,80,2013-03-17 21:15:00
4:35 PM,48.2,39.2,71,29.81,9.0,East,12.7,17.3,N/A,,Overcast,80,2013-03-17 21:35:00
4:55 PM,50.0,39.2,66,29.81,9.0,East,10.4,-,N/A,,Overcast,90,2013-03-17 21:55:00
5:15 PM,51.8,39.2,62,29.80,9.0,ENE,8.1,-,N/A,,Overcast,70,2013-03-17 22:15:00
5:35 PM,50.0,39.2,66,29.79,9.0,East,9.2,-,N/A,,Overcast,90,2013-03-17 22:35:00
5:55 PM,51.8,39.2,62,29.78,8.0,ENE,5.8,-,N/A,,Overcast,70,2013-03-17 22:55:00
6:15 PM,51.8,41.0,67,29.78,9.0,East,4.6,-,N/A,,Overcast,90,2013-03-17 23:15:00
6:35 PM,51.8,41.0,67,29.79,9.0,Calm,Calm,-,N/A,,Overcast,0,2013-03-17 23:35:00
6:55 PM,51.8,41.0,67,29.79,8.0,ENE,4.6,-,N/A,,Overcast,60,2013-03-17 23:55:00
7:15 PM,51.8,41.0,67,29.78,7.0,East,5.8,-,N/A,,Overcast,90,2013-03-18 00:15:00
7:35 PM,50.0,39.2,66,29.77,8.0,East,5.8,-,N/A,,Mostly Cloudy,80,2013-03-18 00:35:00
7:55 PM,50.0,41.0,71,29.77,8.0,East,6.9,-,N/A,,Mostly Cloudy,80,2013-03-18 00:55:00
8:15 PM,50.0,41.0,71,29.76,8.0,ENE,5.8,-,N/A,,Overcast,70,2013-03-18 01:15:00
8:35 PM,50.0,41.0,71,29.76,8.0,ENE,6.9,-,N/A,,Overcast,70,2013-03-18 01:35:00
8:55 PM,50.0,41.0,71,29.74,7.0,East,8.1,-,N/A,,Overcast,80,2013-03-18 01:55:00
9:15 PM,50.0,41.0,71,29.74,8.0,East,6.9,-,N/A,,Overcast,80,2013-03-18 02:15:00
9:35 PM,50.0,41.0,71,29.75,8.0,ENE,5.8,-,N/A,,Overcast,70,2013-03-18 02:35:00
9:55 PM,50.0,41.0,71,29.74,9.0,ENE,8.1,-,N/A,,Overcast,70,2013-03-18 02:55:00
10:15 PM,51.8,41.0,67,29.74,10.0,East,6.9,-,N/A,,Overcast,80,2013-03-18 03:15:00
10:35 PM,51.8,41.0,67,29.73,10.0,ENE,8.1,-,N/A,,Overcast,70,2013-03-18 03:35:00
10:55 PM,51.8,42.8,71,29.72,10.0,East,6.9,-,N/A,,Overcast,100,2013-03-18 03:55:00
11:15 PM,51.8,42.8,71,29.69,10.0,East,9.2,-,N/A,,Overcast,100,2013-03-18 04:15:00
11:35 PM,53.6,44.6,72,29.69,10.0,ESE,8.1,-,N/A,,Overcast,120,2013-03-18 04:35:00
11:55 PM,53.6,44.6,72,29.68,10.0,ESE,8.1,-,N/A,,Overcast,120,2013-03-18 04:55:00